Regional Weather Roundup
Issued by NWS Wakefield, VA

Home | Current Version | Previous Version | Text Only | Print | Product List | Glossary Off
Versions: 1 2 3 4 5 6 7 8 9 10 11 12 13 14 15 16 17 18 19 20 21 22 23 24 25 26 27 28 29 30 31 32 33 34 35 36 37 38 39 40 41 42 43 44 45 46 47 48 49 50

000
ASUS41 KAKQ 060515
RWRAKQ

REGIONAL WEATHER ROUNDUP
NATIONAL WEATHER SERVICE WAKEFIELD VA
1200 AM EST TUE DEC 06 2016

Note: "fair" indicates few or no clouds below 12,000 feet with no
significant weather and/or obstructions to visibility. * = Denotes
station may not report precipitation (e.g., rain,snow,etc.),
thunder or fog.

VAZ042-051-052>054-056-060600-
NORTHERN VIRGINIA

CITY           SKY/WX    TMP DP  RH WIND       PRES   REMARKS
WASH NATIONAL  CLOUDY    46  33  60 N8        30.14S
DULLES         CLOUDY    39  32  76 NE5       30.13R
FORT BELVOIR   CLOUDY    44  31  59 CALM      30.14R
QUANTICO       MOCLDY    43  38  82 N5        30.15R
FREDERICKSBRG* MOCLDY    41  41 100 CALM      30.12R
STAFFORD*      CLOUDY    41  36  80 N3        30.17R
WARRENTON      MOCLDY    41  32  69 NE3       30.13R
CULPEPER*      CLOUDY    41  35  81 CALM      30.14R
MANASSAS*      CLOUDY    39  36  87 CALM      30.15R
LEESBURG*      CLOUDY    41  36  81 MISG      30.14S
WINCHESTER     PTCLDY    34  32  93 CALM      30.12F
FRONT ROYAL*   FAIR      37  32  81 CALM      30.11S
LURAY*         FAIR      41  34  75 NE5       30.11R
$$

VAZ048-049-060>072-079>083-060600-
CENTRAL AND SOUTH CENTRAL VIRGINIA

CITY           SKY/WX    TMP DP  RH WIND       PRES   REMARKS
RICHMOND       CLOUDY    43  41  93 CALM      30.10F
CHESTERFIELD*  FAIR      43  28  56 CALM      30.11F
PETERSBURG*    CLOUDY    42  41  97 CALM      30.11S
HANOVER        CLOUDY    42  39  89 CALM      30.12S FOG
TAPPAHANNOCK*  CLOUDY    41  41 100 CALM      30.12S
QUINTON*       FAIR      41  41 100 CALM      30.10F
CHARLOTTSVILLE CLOUDY    45  40  82 NE5       30.11R
GORDONSVILLE*  FAIR      40  40 100 CALM      30.12R
ORANGE*          N/A     41  41 100 CALM      30.14R
LOUISA*        MOCLDY    43  43 100 CALM      30.10S
BUMPASS*       FAIR      40  40 100 CALM      30.12R
FARMVILLE*     CLOUDY    46  44  92 N3        30.08F
CREWE*         CLOUDY    43  43 100 CALM      30.09S
FORT PICKETT*  CLOUDY    44  41  88 W6        30.09F
CHASE CITY*    CLOUDY    46  45  95 CALM      30.09S
CLARKSVILLE*   CLOUDY    46  45  93 CALM      30.09R
SOUTH HILL*    CLOUDY    45  44  95 CALM      30.14S
LAWRENCEVILLE* CLOUDY    45  44  94 CALM      30.08F
EMPORIA*       CLOUDY    45  43  93 CALM      30.11F
$$

VAZ088>098-060600-
SOUTHEAST VIRGINIA

CITY           SKY/WX    TMP DP  RH WIND       PRES   REMARKS
NORFOLK        CLOUDY    50  41  71 NE3       30.10R
VIRGINIA BEACH CLOUDY    50  40  68 E5        30.09R
NORFOLK NAVAL  CLOUDY    50  40  68 E3        30.13R
WEST POINT*    MOCLDY    41  41  98 CALM      30.13R
SALUDA*        FAIR      45  45 100 N3        30.10F
NEWPORT NEWS   CLOUDY    44  43  96 CALM      30.10S
LANGLEY AFB    MOCLDY    47  44  91 CALM      30.10R
FORT EUSTIS    MOCLDY    45  42  88 CALM      30.08R
WILLIAMSBURG*  CLOUDY    46  45  93 CALM      30.11F
HR EXEC AP*    CLOUDY    43  41  93 W3        30.11R
FRANKLIN*      CLOUDY    44  43  95 CALM      30.11F
US460-WAKEFLD  CLOUDY    44  43  96 CALM      30.11S
$$

VAZ020-022-025-037-045-060600-
WEST CENTRAL AND SOUTHWEST VIRGINIA

CITY           SKY/WX    TMP DP  RH WIND       PRES   REMARKS
STAUNTON*      PTCLDY    40  33  75 NE5       30.10F
WAYNESBORO*    FAIR      44  40  85 CALM      30.08F
HOT SPRINGS VA CLOUDY    37  32  81 SE10      30.00S
LYNCHBURG      LGT RAIN  46  41  82 SE3       30.11R
DANVILLE       CLOUDY    47  46  97 CALM      30.08F
SOUTH BOSTON*  CLOUDY    46  45  95 CALM      30.10S
MARTINSVILLE   LGT RAIN  46  45  97 CALM      30.10F
ROANOKE        LGT RAIN  47  42  83 SE6       30.08F
BLACKSBURG     RAIN      44  42  89 E6        30.07F
DUBLIN*        DRIZZLE   46  43  90 E7        30.04F
MARION*        CLOUDY    45  41  86 E15G22    30.01F
HILLSVILLE*    DRIZZLE   41  41  99 CALM      30.02F
RICHLANDS*     CLOUDY    46  25  43 SE23G31   29.90F
WISE*          CLOUDY    48  41  76 SE6       29.89F
ABINGDON*      DRIZZLE   49  46  89 E14       29.92S
$$

MDZ021>025-VAZ099-100-060600-
SOUTHERN MARYLAND AND THE DELMARVA PENINSULA

CITY           SKY/WX    TMP DP  RH WIND       PRES   REMARKS
PATUXENT RIVER PTCLDY    42  39  89 NE5       30.12R
BAY BRIDGE APT CLOUDY    45  32  61 N10       30.14R
LEONARDTOWN    CLOUDY    43  37  81 CALM      30.13R
DOVER          CLOUDY    39  37  91 NW3       30.11S
GEORGETOWN     CLOUDY    43  36  76 N3        30.11F
EASTON         PTCLDY    43  34  70 CALM      30.16S
CAMBRIDGE      CLOUDY    37  37 100 CALM      30.13R
SALISBURY      PTCLDY    42  36  79 N6        30.11R
OCEAN CITY     MOCLDY    40  37  89 N6        30.10S
WALLOPS ISLAND CLOUDY    41  40  96 NW5       30.12R
ACCOMACK*      CLOUDY    42  41  97 NE3       30.10F
$$

NCZ012>017-030>032-060600-
NORTH CENTRAL AND EASTERN NORTH CAROLINA

CITY           SKY/WX    TMP DP  RH WIND       PRES   REMARKS
ROANOKE RAPIDS MOCLDY    45  45 100 CALM      30.09F
RALEIGH        LGT RAIN  49  45  86 E6        30.08R
ELIZABETH CITY CLOUDY    49  43  80 N8        30.09F
AHOSKIE*       CLOUDY    45  43  95 CALM      30.11S
EDENTON*       CLOUDY    49  43  82 CALM      30.11F
CURRITUCK*     CLOUDY    48  46  95 CALM      30.10F
KILL DEVIL HLS CLOUDY    52  47  85 NE5       30.07F
MANTEO         CLOUDY    51  46  81 NE7       30.09R
CAPE HATTERAS  CLOUDY    53  47  79 NE6       30.06F
TARBORO*       NOT AVBL
GOLDSBORO      LGT RAIN  50  49  93 E9        30.04F
WASHINGTON     CLOUDY    47  42  82 NE8       30.09S
GREENVILLE     CLOUDY    50  45  81 NE5       30.10R
NEW BERN       CLOUDY    49  44  83 NE8       30.07F
WILMINGTON     RAIN      48  47  96 NE9       30.04R
$$

VAZ048-060600-
ELSEWHERE

CITY           SKY/WX    TMP DP  RH WIND       PRES   REMARKS
HARRISBURG PA  MOCLDY    34  31  88 NW5       30.12F
BALTIMORE      CLOUDY    43  31  62 CALM      30.13R
ANNAPOLIS      CLOUDY    47  34  60 N6        30.13F
ANDREWS AFB    CLOUDY    41  32  71 N5        30.13R
PHILADELPHIA   MOCLDY    40  30  67 N6        30.12S
HENDERSON NC   CLOUDY    45  41  88 CALM      30.09R
GREENSBORO     LGT RAIN  48  46  93 E5        30.08R
ROCKY MOUNT    CLOUDY    49  45  86 NE5       30.07F
$$

VAZ100-060600-
MARINE

STATION/POSITION TIME  TEMP    WIND        PRES    WAVE   SWELL
                       AIR SEA DIR/SP/G            HT/PER HT/PER
                 (UTC) (F)     (DEG/KT/KT) (MB)    (FT/S) (FT/S)
BRANDYWINE LGT   0448   46      20/ 14/ 17   N/A
CAPE MAY NJ      0448   45 48   10/  5/  7 1019.1R
LEWES DE         0448   48 49   20/ 14/ 17 1019.4S
OCEAN-CITY-INLET 0448   45 50  360/  5/  6 1019.5F
WACHAPREAGUE VA  0448   44 49  350/  3/  5 1019.2F
THOMAS POINT MD  0500   46 49  360/ 13/ 14   N/A
GOOSES REEF MD   0500   47 50   70/ 12/ 14 1021.0    1/ 2
COVE POINT MD    0448   47      50/ 11/ 13 1020.6R
SOLOMONS ISLAND  0448   45 51   10/  6/  6   N/A
BISHOPS HEAD MD  0448   44 47  350/  3/  5 1019.9R
PINEY POINT MD   0448           20/  3/  3   N/A
POTOMAC MD       0450   48      10/  4/  6 1018.7F
CAMBRIDGE MD     0448   45 47   10/  3/  5 1019.3R
LEWISETTA VA     0448   45 49  350/  2/  3 1019.3F
RAPPAHANNOCK LGT 0448           40/  9/ 11 1019.3F
STINGRAY PT      0450   49      50/ 10/ 12 1019.2F
YORK RVR RNG VA  0448   48     360/  5/  6 1018.5F
YORKTOWN VA      0448   48 52  360/  4/  5 1018.8F
JAMESTOWN VA     0450   46      20/  2/  2   N/A
DOMINION TERM VA 0448   49      20/  1/  3 1019.4R
KIPTOPEKE VA     0448      52   30/  4/  4   N/A
CHES BAY BRIDGE  0448   50 54   50/  8/ 11 1018.9F
CAPE HENRY VA    0448   50      30/  7/ 10   N/A
WILLOUBY STN VA  0448   50      60/  8/  9 1020.2R
S CRANEY ISL VA  0448   50      80/  5/  6 1019.2R
CAPE HENRY BUOY  0442      56                N/A     3/ 8
1ST LANDING BUOY 0450   50                 1018.9F
CAPE CHARLES BUO 0456      55                N/A     3/ 8
OFFSHORE WE BUOY 0451      56                N/A     4/ 5
64NM E OF VA BCH 0450   54 60   20/ 14/ 17 1018.2R   5/ 6   3/ 9
DUCK PIER NC     0448   53 54   40/ 12/ 13 1018.2R
44100 DUCK FRF   0435      56                N/A     4/ 8   2/11
OREGON INLET NC  0436   53 56   20/  9/ 12 1018.8R
HATTERAS NC      0448   53 60   30/  6/  8 1017.6F
DIAMOND SHLS NC  0450   59 77   20/ 14/ 17 1017.7F   5/ 8   3/ 8
CAPE LOOKOUT NC  0500   50      10/ 15/ 18 1016.8F
$$



USA.gov is the U.S. government's official web portal to all federal, state and local government web resources and services.